Location: Voorhees State Park
(40.6817°N, 74.8983°W)
Time: 23:12:04
(UTC-04:00)

Daily predictions for brighter satellites

Satellite Brightness Start Highest point End
(mag) Time Altitude Azimuth Time Altitude Azimuth Time Altitude Azimuth
Cosmos 1072 Rocket 4.5 19:03:46 10° S 19:09:48 66° E 19:15:52 10° NNE
ATLAS CENTAUR R/B 4.1 19:06:52 10° WNW 19:10:04 22° WSW 19:13:04 10° SSW
Cosmos 2333 Rocket 4.4 19:06:20 10° WSW 19:11:12 27° NW 19:16:06 10° N
Cosmos 1470 4.5 19:09:57 10° ESE 19:11:52 13° E 19:13:49 10° NE
Cosmos 1674 4.4 19:10:28 10° NE 19:12:50 15° ENE 19:15:11 10° ESE
Cosmos 1076 Rocket 3.6 19:09:44 10° N 19:14:02 59° E 19:18:19 10° SSE
Spot 2 Rocket 4.2 19:09:46 10° SE 19:14:11 31° ENE 19:18:36 10° N
ATLAS 5 CENTAUR R/B 2.0 19:13:27 10° SW 19:18:13 82° NW 19:23:25 10° NNE
MSX 4.2 19:12:35 10° S 19:18:17 70° WSW 19:24:04 10° NNW
Cosmos 1766 Rocket 3.6 19:14:56 10° N 19:19:14 54° E 19:23:28 10° SSE
Abrixas 2.4 19:18:12 10° SW 19:21:11 75° SSE 19:24:11 10° ENE
Cosmos 1269 Rocket 4.4 19:17:36 10° S 19:22:29 40° ESE 19:27:25 10° NE
Cosmos-2242 3.3 19:19:19 10° SSE 19:23:28 45° E 19:27:40 10° NNE
SJ-6B 2.8 19:24:01 10° SSE 19:27:59 68° ENE 19:32:04 10° N
USA 215 3.8 19:24:39 10° ENE 19:30:40 38° SE 19:36:38 10° SSW
HJ-1C 4.0 19:27:50 10° SE 19:30:54 34° ENE 19:34:00 10° N
ATLAS CENTAUR R/B 3.7 19:26:34 10° SW 19:31:23 86° NW 19:47:04 10° NE
FREGAT/IRIS 2.7 19:29:53 10° SSE 19:32:54 57° ENE 19:35:57 10° N
Cosmos 1544 3.4 19:30:23 10° SSE 19:33:56 43° E 19:37:29 10° NNE
Cosmos 1346 3.5 19:31:10 10° N 19:33:59 38° ENE 19:36:47 10° SSE
Cosmos 1484 Rocket 3.9 19:31:10 10° S 19:34:53 48° W 19:38:43 10° NNW
SAR-Lupe-4 3.8 19:33:46 10° S 19:37:19 75° WSW 19:40:55 10° NNW
TELKOM 3 3.9 19:34:36 10° NW 19:37:23 38° NNE 19:38:27 23° E
METEOR-M 4.2 19:32:30 10° SSE 19:37:45 60° ENE 19:43:02 10° N
Cosmos 724 4.4 19:31:52 10° SSW 19:37:47 88° WNW 19:43:54 10° NNE
OAO 3 Rocket 4.1 19:38:58 10° WSW 19:43:22 38° S 19:46:49 15° SE
Cosmos 1758 3.4 19:39:53 10° S 19:43:59 88° W 19:48:06 10° N
Cosmos 1464 Rocket 4.3 19:38:39 10° SSW 19:44:52 73° W 19:51:03 10° N
Cosmos 2034 Rocket 4.0 19:38:45 10° S 19:45:02 85° E 19:51:24 10° N
SL-16 R/B 3.9 19:43:51 10° WSW 19:49:01 35° WNW 19:54:12 10° N
CZ-4B DEB 3.8 19:49:16 25° E 19:49:44 26° ENE 19:52:30 10° NNE
Cosmos 1408 Rocket 4.1 19:45:47 10° NNW 19:50:04 61° W 19:54:18 10° S
Cosmos 1500 Rocket 3.9 19:47:04 10° N 19:51:19 42° ENE 19:55:33 10° SSE
Cosmos 1842 Rocket 3.8 19:47:56 10° SSE 19:52:01 43° E 19:56:10 10° NNE
Meteor 1-21 Rocket 4.2 19:50:10 10° N 19:55:45 90° E 20:01:17 10° S
FENGYUN 3A 4.0 19:51:13 10° SE 19:56:18 45° ENE 20:01:25 10° N
Spot 1 4.2 19:55:06 10° SSE 19:59:47 83° WSW 20:04:13 10° NNW
Helios 1A 2.9 19:56:01 10° SSE 20:00:12 75° ENE 20:04:26 10° N
CZ-2D R/B 3.7 20:06:27 35° ESE 20:07:15 40° ENE 20:10:55 10° N
Meteor 1-29 2.8 20:06:02 10° NNE 20:09:33 84° ESE 20:13:01 10° SSW
GPS 2-04 Rocket1 3.2 20:11:39 10° WSW 20:14:50 34° S 20:15:05 34° SSE
H-2A R/B 2.8 20:17:05 48° ESE 20:17:37 53° ENE 20:21:24 10° N
ASTEX 1 3.2 20:13:00 10° N 20:17:55 70° E 20:22:45 10° S
Cosmos 839 Rocket 4.3 20:12:29 10° NNW 20:20:06 63° NE 20:23:23 31° SE
Cosmos 1943 Rocket 3.0 20:15:37 10° N 20:20:34 31° ENE 20:21:11 30° ENE
Resurs 1-3 3.7 20:16:29 10° S 20:20:52 74° WSW 20:25:16 10° NNW
Cosmos 1743 Rocket 4.1 20:16:30 10° NNW 20:20:53 61° W 20:25:12 10° S
ALOS 2.1 20:20:14 18° SSE 20:23:46 83° ENE 20:28:28 10° N
Cosmos 2251 Rocket 3.7 20:21:31 10° S 20:26:28 45° ESE 20:31:27 10° NNE
Cosmos 2369 Rocket 2.1 20:22:37 10° NNW 20:28:18 79° ENE 20:31:02 32° SSE
Resurs 01 Rocket 2.7 20:24:46 10° S 20:29:02 46° W 20:33:20 10° NNW
Cosmos 1943 3.1 20:23:36 10° SSW 20:29:14 87° ESE 20:34:54 10° NNE
Helios 1B rocket 3.4 20:25:38 10° N 20:29:36 48° WNW 20:33:33 10° SSW
CENTAUR R/B 2.4 20:25:46 10° SSW 20:31:48 88° WNW 20:38:40 10° NE
SL-8 R/B 4.2 20:27:39 10° W 20:32:21 55° NNW 20:34:18 32° NE
Gbstr 26 Del rocket 3.3 20:29:44 10° WSW 20:34:11 80° NW 20:36:27 35° NE
ISS -1.9 20:34:37 10° W 20:37:38 34° NNW 20:37:49 34° NNW
Cosmos 2263 4.1 20:34:19 10° NNW 20:40:07 71° ENE 20:41:31 51° SE
Cosmos 1331 Rocket 4.1 20:34:54 10° N 20:40:07 54° ENE 20:40:19 53° ENE
BREEZE-M DEB (TANK) 3.5 20:28:26 10° WNW 20:40:17 60° N 20:41:39 44° ENE
Cosmos 1733 3.8 20:36:35 10° SSW 20:40:24 57° W 20:44:13 10° N
ERBS 4.4 20:42:48 10° NNW 20:44:31 22° N 20:44:31 22° N
Cosmos 1470 4.2 20:43:59 10° SSW 20:47:37 37° WNW 20:51:15 10° N
Cosmos 1674 4.3 20:45:04 10° NNW 20:48:35 34° W 20:51:28 14° SSW
Cosmos 2279 Rocket 3.9 20:48:01 50° SE 20:49:18 60° E 20:55:24 10° NNE
GP-B 3.2 20:48:00 10° N 20:52:27 76° W 20:52:57 67° SW
Cosmos 2058 4.1 20:49:23 10° N 20:51:47 34° N 20:51:47 34° N
Cosmos 2151 3.5 20:57:41 10° NNW 21:01:36 56° W 21:01:36 56° W
Envisat 4.0 21:05:36 35° NNE 21:05:36 35° NNE 21:08:44 10° N
SL-24 R/B - RUBIN 2 4.3 20:59:02 10° NNW 21:05:44 86° ENE 21:06:20 75° SE
Cosmos 1655 Rocket 3.9 21:02:37 10° N 21:08:52 85° W 21:10:10 59° S
Meteor 2-1 Rocket 4.2 21:08:30 78° S 21:08:55 88° E 21:14:51 10° N
Cosmos 2026 Rocket 4.0 21:03:22 10° N 21:09:29 76° W 21:11:21 47° SSW
Meteor 1-16 Rocket 4.4 21:06:13 10° SSW 21:11:28 63° WNW 21:16:45 10° N
Cosmos 1428 Rocket 4.4 21:05:16 10° N 21:11:16 72° ENE 21:11:16 72° ENE
USA 215 3.6 21:09:20 21° NE 21:13:50 62° NW 21:20:15 10° WSW
ERS-1 Rocket 4.2 21:35:50 37° NNW 21:35:50 37° NNW 21:38:52 10° NNW
Cosmos 1943 Rocket 3.8 21:59:13 10° NW 22:02:43 31° WNW 22:02:43 31° WNW
